RH
43 24 30 23 21 21 17 20 19 26 26 56 44 48 43 56 46 46 84 80 79 76 73 74 94 94 93 92 91 91 90 89 88 87 85 85 87 89 89 88 87 84 78 77 79 82 82 85 86
24 25 23 25 22 14 9 19 23 48 48 56 55 55 52 61 76 87 88 80 77 74 73 70 90 86 83 84 83 87 86 86 86 87 87 86 87 89 87 88 90 86 81 80 80 81 82 84 87
23 21 19 27 28 15 12 19 21 50 55 51 58 64 67 74 77 77 82 79 77 81 77 84 93 91 89 88 87 86 85 84 84 83 82 82 82 88 88 90 91 86 83 81 80 83 86 87 89
13 16 22 24 26 24 20 18 18 49 55 52 57 63 75 73 69 77 74 76 78 81 81 89 92 91 88 84 82 78 78 82 83 86 84 82 81 81 86 89 88 86 84 84 84 86 88 91 91
16 18 21 26 26 22 20 17 17 18 47 50 57 66 80 87 74 81 77 75 76 80 81 83 92 90 85 81 76 76 80 83 83 80 79 81 79 77 74 80 79 78 74 76 78 80 86 90 92
12 18 21 21 22 17 14 15 15 19 26 59 57 69 80 87 89 87 77 78 78 85 86 83 86 87 80 78 78 82 82 82 82 80 80 76 76 76 75 78 76 74 73 72 76 80 82 85 88
12 15 17 20 19 17 14 14 16 37 52 55 57 58 82 93 86 86 80 79 83 86 84 80 71 70 83 83 83 83 83 83 81 79 79 79 80 82 76 75 74 74 73 73 74 74 74 74 75
13 14 17 18 18 16 14 13 14 28 41 58 61 54 65 72 89 89 82 84 80 77 72 69 66 69 71 66 82 84 82 79 78 78 78 81 80 77 76 73 74 75 75 74 74 74 73 72 73
14 17 18 16 18 15 15 17 20 44 58 60 58 58 63 76 89 89 86 83 75 70 65 61 61 67 72 70 68 76 79 78 76 73 77 70 61 61 61 75 76 76 75 74 73 72 70 67 67
16 22 19 15 15 18 16 16 14 35 49 53 58 70 77 80 91 90 89 84 74 68 66 57 62 69 71 58 68 69 63 59 62 64 68 64 66 63 60 70 76 75 73 72 71 70 62 54 42
23 24 22 17 15 16 20 18 12 18 35 37 42 57 88 85 89 86 82 73 69 64 60 59 65 71 67 65 59 58 58 59 64 69 67 68 62 62 57 55 53 57 63 49 49 47 46 55 49
26 24 21 20 20 23 22 18 17 14 14 18 21 56 84 86 85 81 77 68 64 62 60 60 60 67 69 60 56 58 55 58 61 64 69 66 61 62 59 53 55 55 52 54 50 47 54 54 52
32 26 23 22 23 22 23 22 21 19 15 13 41 70 75 78 78 76 67 64 62 62 58 60 62 65 67 66 61 61 58 57 64 62 68 62 59 62 55 57 52 51 48 48 50 48 47 48 49
27 27 27 26 26 25 26 23 23 19 18 28 56 55 65 74 76 75 70 66 63 58 60 61 62 64 66 64 67 64 61 62 61 62 65 69 59 61 54 54 51 52 49 50 51 51 47 48 50
28 34 30 26 27 27 26 27 25 19 36 34 46 51 59 66 70 71 67 63 57 57 58 63 65 65 66 67 65 60 57 58 60 60 66 66 59 62 59 55 54 52 54 56 50 51 49 46 44
33 37 32 25 27 24 24 22 21 24 27 24 35 50 63 66 67 64 63 59 54 54 58 60 54 65 68 68 63 57 58 58 58 58 59 66 65 61 57 52 53 54 52 49 49 49 44 47 47
45 35 40 32 26 26 28 31 24 22 25 27 30 39 58 66 70 65 63 58 55 56 57 61 63 64 68 70 63 64 67 57 58 58 57 67 65 64 56 54 57 55 51 54 51 52 53 48 47
37 47 46 36 30 31 30 31 26 25 25 26 25 27 51 63 65 64 64 59 55 59 58 61 61 67 71 70 68 61 60 60 58 58 60 67 63 64 58 56 59 54 51 52 54 58 54 52 53
30 39 37 31 31 35 32 32 30 27 28 28 25 23 36 58 54 64 65 59 58 61 59 61 64 68 66 64 63 61 61 62 62 59 65 65 63 63 61 56 57 57 57 62 61 56 58 52 52
38 41 42 37 33 38 38 40 32 29 28 26 24 23 26 45 63 71 65 62 63 62 59 60 58 63 60 57 55 54 59 59 60 61 64 64 63 61 59 61 59 60 57 63 63 62 53 54 55
46 47 46 45 38 38 40 32 21 22 27 24 23 22 22 35 55 68 67 65 62 62 62 58 57 61 59 60 58 62 63 66 65 65 61 62 63 63 62 63 62 63 59 61 62 63 62 55 55
42 40 41 41 48 43 37 40 28 22 21 22 22 24 24 33 52 59 64 65 64 63 61 62 61 61 60 60 57 63 56 59 59 62 62 61 63 62 62 63 63 65 61 64 60 59 62 60 62
33 29 36 42 45 48 36 40 25 23 22 20 30 49 47 45 42 56 60 60 58 61 63 68 64 61 60 59 60 58 60 62 64 64 67 66 64 63 61 62 63 64 60 66 66 66 63 57 59
26 26 29 33 35 40 32 35 25 30 57 47 50 53 56 52 44 51 55 56 60 66 74 73 63 60 63 64 63 62 68 68 66 66 64 63 61 61 64 63 64 64 65 68 64 60 60 58 58
27 32 36 36 44 39 26 35 29 53 61 60 64 62 60 58 61 61 60 60 61 66 67 69 61 64 66 70 70 68 69 68 67 66 63 66 65 64 66 65 65 66 69 67 61 60 61 62 59
37 35 43 46 37 33 34 36 30 63 56 56 58 60 61 60 60 61 63 62 61 64 64 60 61 66 68 70 72 70 68 65 62 63 63 63 65 63 68 66 68 72 68 63 59 56 56 61 60
47 45 34 49 44 53 36 44 75 60 64 62 59 58 63 63 62 62 63 63 61 61 63 63 65 68 71 74 75 74 71 70 68 68 68 69 68 63 70 72 72 68 68 64 59 56 58 60 61
48 47 65 77 81 61 39 40 39 84 70 58 61 65 64 63 63 62 62 64 59 58 61 68 69 71 73 74 72 69 69 68 68 68 71 72 66 67 72 72 69 65 62 61 60 55 57 57 58
64 68 80 79 92 91 77 74 84 83 74 68 56 64 63 64 64 62 63 64 62 61 67 74 74 74 75 75 74 74 75 74 71 72 75 72 72 73 75 72 66 63 61 57 52 52 55 56 53
66 84 63 93 90 90 85 82 73 73 69 68 57 50 65 62 64 61 63 65 69 72 74 76 79 78 78 79 76 79 74 73 78 80 78 75 75 75 73 70 65 62 60 55 50 52 54 54 52
Wind_Speed
1 4 2 1 2 0 2 3 2 4 3 1 4 3 8 3 5 1 6 8 15 14 13 13 12 12 11 11 12 12 12 12 12 12 11 11 11 12 10 9 7 7 7 7 8 8 9 6 5
4 3 2 2 2 2 2 1 0 4 2 5 4 3 3 4 3 7 7 13 14 13 13 13 12 12 12 11 11 10 12 12 11 11 11 9 11 11 9 9 7 5 5 6 7 8 7 6 5
4 2 0 3 2 4 2 4 4 2 4 2 3 2 1 6 6 10 12 14 13 11 11 11 12 12 11 11 11 11 11 11 11 12 11 9 9 9 8 8 6 5 5 5 6 6 6 5 5
2 2 4 0 3 4 4 4 3 2 5 3 3 3 2 5 9 8 16 14 13 11 10 11 11 11 12 13 13 12 12 10 9 10 11 11 10 9 9 8 7 6 6 6 6 4 4 4 4
3 2 0 1 3 4 5 6 2 5 4 5 6 4 4 2 9 15 15 12 14 11 11 10 11 12 13 14 13 12 11 10 10 11 11 11 13 11 11 10 8 9 9 9 7 5 4 4 3
2 1 1 4 3 4 6 5 2 4 8 4 4 7 4 6 12 12 15 13 11 11 9 9 11 11 12 13 12 12 12 12 13 12 13 14 15 12 14 15 15 15 14 14 14 14 14 13 11
3 3 3 2 3 5 3 5 2 0 3 5 3 7 4 8 11 12 13 13 11 11 11 9 10 12 13 12 12 12 12 12 13 14 14 15 14 14 15 15 15 14 14 14 14 14 14 14 15
3 2 3 4 3 5 2 6 2 1 3 2 1 5 4 12 11 10 11 12 12 10 9 10 9 10 10 10 13 13 14 14 14 15 15 14 15 15 15 12 15 15 14 14 14 14 13 13 14
2 3 4 5 6 4 2 5 1 2 4 3 3 2 1 18 14 11 11 9 10 8 9 8 9 9 10 10 11 13 14 15 15 13 13 11 7 9 12 13 15 14 14 13 13 13 13 10 10
3 3 8 6 6 4 2 2 4 3 3 5 4 3 9 17 16 15 15 14 14 13 11 10 9 10 9 7 8 8 8 7 9 9 8 7 8 8 10 12 14 15 12 13 13 13 11 9 6
2 6 5 4 7 4 2 4 2 3 5 9 9 10 13 17 16 17 16 15 15 14 10 10 10 9 10 8 6 4 4 5 6 9 9 8 6 6 5 4 5 5 9 6 7 7 6 8 6
4 5 5 5 1 2 3 6 5 5 11 2 5 8 15 18 19 19 18 16 16 14 13 11 10 9 9 7 6 6 6 6 6 7 8 7 5 6 6 5 5 6 5 5 6 5 6 7 8
6 6 5 4 5 9 9 11 8 13 16 8 2 10 17 18 19 17 16 15 15 15 13 13 12 11 10 10 7 6 7 6 7 6 6 6 7 6 5 5 5 5 4 5 4 5 6 6 7
1 5 10 6 8 12 13 16 10 17 9 9 8 14 15 19 21 17 18 20 19 16 15 14 13 12 12 10 10 8 7 8 7 7 7 8 7 6 6 6 6 5 5 5 4 5 5 5 5
2 10 13 11 7 6 6 7 9 10 1 7 10 12 13 18 18 25 22 20 20 16 16 15 14 13 13 13 10 8 7 8 7 7 8 9 8 8 7 6 6 5 4 5 5 5 5 5 5
5 3 8 2 2 1 5 12 10 4 4 10 11 12 12 15 20 15 15 18 19 17 17 15 12 14 14 13 10 8 8 7 8 7 7 9 9 8 7 6 6 5 5 5 5 6 6 5 5
1 10 9 8 3 3 4 5 8 14 12 13 11 11 12 13 15 17 16 17 18 18 18 17 15 15 14 13 10 9 10 8 7 7 7 9 9 8 7 6 6 5 6 6 6 7 7 6 5
7 7 5 10 3 4 16 21 19 16 12 15 14 12 12 15 23 16 16 15 17 17 18 17 14 16 15 11 10 8 8 8 7 8 8 9 8 9 7 6 7 6 6 6 6 7 7 8 5
10 10 16 13 10 17 20 22 17 16 12 14 16 15 14 16 14 15 16 17 17 17 18 19 18 17 14 12 12 10 9 8 8 8 11 10 8 8 8 6 6 6 7 7 6 5 8 8 7
15 17 18 15 11 9 14 30 23 21 24 19 18 16 15 14 12 15 16 18 20 20 20 20 20 19 15 12 10 8 11 8 8 8 9 9 9 8 8 7 7 7 6 8 9 8 4 6 9
10 14 11 15 13 14 17 27 15 4 9 11 11 15 12 16 16 16 18 20 20 22 21 21 20 20 16 16 12 11 10 10 8 8 8 8 10 9 9 9 8 8 7 7 8 8 9 5 7
14 10 12 13 8 11 1 16 16 14 11 6 10 10 10 11 12 13 16 18 20 17 17 18 18 19 16 18 15 19 12 12 8 8 8 8 9 10 10 10 9 8 7 8 8 8 8 6 6
17 8 10 8 9 9 14 10 2 5 17 12 12 14 15 13 10 12 15 16 17 17 18 16 18 18 17 17 16 14 14 9 10 9 12 10 9 10 10 10 9 9 7 9 9 9 9 7 6
4 1 1 2 4 12 11 12 13 3 5 7 13 15 17 17 12 7 9 12 13 14 15 16 18 17 17 16 17 17 18 16 13 12 10 8 7 8 9 10 9 9 8 9 8 9 9 7 6
7 5 5 7 7 12 7 13 15 5 8 8 13 15 15 14 10 2 7 9 12 16 17 16 18 16 16 15 14 16 18 17 16 14 10 11 8 7 9 9 9 8 10 10 8 8 8 7 7
8 13 9 10 10 8 3 10 4 11 9 9 8 9 12 14 11 5 2 7 10 13 16 17 16 16 15 15 15 13 16 10 11 10 10 8 7 8 10 9 10 10 11 9 8 5 5 6 7
4 6 7 9 12 7 8 3 6 3 10 12 14 12 11 9 8 6 0 6 10 13 14 15 14 13 12 13 12 12 12 13 12 13 11 8 9 9 10 10 10 11 10 8 8 6 6 6 7
4 4 4 1 6 9 8 7 2 8 13 15 13 11 9 6 6 6 3 3 7 10 11 11 12 13 13 12 11 11 11 12 12 11 11 10 9 10 10 10 10 10 9 8 7 7 6 6 5
4 1 3 2 4 3 3 4 3 6 1 5 9 7 3 1 3 6 7 6 6 8 9 10 11 12 12 11 12 13 12 12 12 11 11 10 10 10 10 9 9 9 9 8 7 8 7 7 7
10 10 14 6 5 4 3 4 11 11 8 6 10 9 3 2 1 7 10 11 9 9 9 10 10 13 12 11 13 13 12 12 11 11 11 10 10 10 10 9 9 9 9 8 7 7 7 8 8
Wind_Direction
167 127 137 64 204 51 261 199 297 265 251 107 145 191 184 48 177 193 130 109 133 133 132 133 123 121 121 119 115 116 115 118 120 121 128 128 129 118 114 116 101 93 115 116 105 109 95 92 84
131 126 90 92 135 198 211 214 350 272 271 135 108 122 157 127 108 127 127 132 127 130 132 138 130 128 126 120 115 107 110 110 102 94 95 106 111 112 124 119 110 111 94 94 106 102 95 84 76
124 50 140 85 103 204 237 208 248 304 148 188 142 40 128 124 135 141 123 130 125 116 121 118 112 114 115 114 110 111 118 122 123 126 129 115 116 109 112 107 106 110 107 102 103 101 101 94 77
111 84 95 185 226 254 233 279 254 207 231 215 178 152 113 3 159 138 138 129 119 118 118 114 111 112 121 127 126 122 120 118 118 124 126 125 117 111 106 95 90 86 83 88 93 94 93 90 87
37 86 138 151 234 262 252 274 254 249 229 189 177 173 162 57 127 140 142 139 138 132 125 125 123 131 134 131 123 116 110 103 102 101 94 96 108 97 88 77 68 65 62 55 54 49 50 55 47
89 66 203 252 234 252 276 267 285 233 233 145 180 155 151 137 142 150 152 145 140 132 121 135 135 137 127 123 118 112 105 98 94 89 88 89 89 85 83 79 76 74 70 60 55 57 53 44 34
155 144 235 223 257 283 227 339 351 81 180 210 126 176 132 177 154 151 151 145 135 132 139 137 134 126 115 111 101 96 97 97 94 90 86 83 81 76 78 78 79 74 69 63 57 54 53 53 48
117 161 179 219 206 269 269 335 286 186 208 160 198 200 189 180 146 140 146 143 141 143 139 134 132 131 126 113 103 105 105 102 98 93 89 84 79 79 72 71 68 67 64 61 55 49 49 49 46
148 207 206 216 186 237 300 356 39 98 132 249 212 219 85 142 138 142 146 145 145 142 140 138 135 131 125 116 109 109 107 102 94 90 90 90 85 81 79 67 68 65 62 56 52 49 41 42 47
219 232 218 213 198 236 273 297 315 207 174 232 247 231 146 154 162 172 176 168 165 161 154 152 144 139 128 112 107 102 99 90 100 101 89 88 87 79 81 75 68 63 51 52 47 37 38 31 30
146 249 235 245 235 282 315 295 299 231 225 229 221 198 176 175 179 188 187 182 171 165 162 159 151 145 136 126 123 115 104 96 88 92 105 97 90 77 71 73 59 59 50 34 36 31 33 35 29
257 235 245 302 49 331 282 304 280 239 262 229 276 180 177 192 191 195 190 181 178 173 166 158 155 145 137 130 122 121 113 111 104 104 106 103 97 89 82 72 65 56 47 42 40 43 30 37 40
227 263 274 260 293 285 282 254 249 267 254 241 208 180 190 197 203 197 190 182 180 178 169 166 158 151 143 133 130 120 113 102 103 95 89 102 102 94 89 82 77 69 64 56 50 48 37 35 37
195 277 286 285 268 263 257 273 187 250 265 251 204 212 207 205 200 192 189 185 184 177 173 164 160 153 147 141 138 127 118 114 110 109 100 88 90 91 87 79 70 63 47 49 46 45 45 42 37
297 300 299 284 265 237 176 257 229 264 333 282 258 251 233 220 198 204 196 189 181 177 165 166 158 153 150 144 136 129 125 118 110 105 103 102 97 97 95 86 78 66 52 53 51 52 48 46 53
280 249 283 98 161 298 208 268 270 85 356 302 271 259 243 229 224 225 204 191 181 170 170 162 157 157 151 145 140 133 128 119 115 113 108 103 101 103 98 89 71 57 63 45 44 31 41 41 42
222 266 243 287 276 214 201 276 276 282 303 297 283 270 247 241 227 219 203 193 179 171 165 163 161 158 150 144 136 132 129 122 118 116 111 103 98 90 85 84 78 64 58 49 34 37 25 30 39
227 231 229 257 180 275 293 280 279 277 285 284 285 279 253 236 232 209 195 181 177 173 167 163 162 155 149 141 133 129 124 121 123 117 109 108 99 95 92 86 82 73 68 59 52 45 41 26 24
264 262 266 264 279 296 285 282 282 286 277 269 271 265 252 237 241 205 186 173 171 173 170 169 161 159 153 153 150 145 139 133 123 118 117 112 105 93 91 84 78 71 68 63 51 61 50 42 23
242 259 267 282 267 278 294 289 290 270 264 257 254 260 243 236 218 194 179 176 179 177 177 173 168 165 165 160 157 150 143 133 125 120 113 109 104 100 96 92 77 66 74 61 52 48 50 51 31
231 238 255 264 293 274 294 286 293 328 250 261 253 257 260 237 222 198 185 186 180 183 180 176 169 167 166 160 145 130 125 129 134 132 121 108 103 95 85 79 77 76 69 65 61 54 50 56 51
253 214 240 263 272 277 234 289 292 285 287 298 284 260 283 276 246 210 194 190 192 183 174 173 170 169 163 162 157 157 155 152 146 136 124 113 104 100 95 91 84 75 71 73 67 59 60 55 50
265 229 237 239 245 279 248 262 327 247 301 319 16 6 345 338 287 227 205 195 188 176 173 165 165 169 163 165 161 159 154 137 138 133 127 118 109 102 93 88 84 81 80 74 71 69 62 57 60
125 277 271 225 229 256 242 228 290 315 353 328 347 358 352 342 322 230 195 178 170 163 162 167 166 164 162 162 163 161 151 147 146 144 138 131 124 114 104 100 90 86 87 81 73 66 63 72 71
203 200 264 246 208 250 203 219 257 40 47 17 358 359 359 352 360 100 162 171 168 170 167 165 164 160 160 159 160 159 151 149 148 148 143 139 136 127 119 113 108 102 98 87 74 66 63 66 73
203 212 210 242 241 263 224 241 225 97 73 50 32 17 17 12 2 6 135 162 167 167 165 163 161 153 153 149 143 145 143 144 143 143 142 136 137 128 123 114 104 101 97 89 79 74 74 75 72
148 186 246 267 276 263 241 216 168 300 39 34 20 14 27 30 26 1 295 174 168 164 155 150 141 136 137 135 134 136 140 141 141 136 130 129 127 124 118 109 102 93 89 95 89 72 69 74 69
233 136 170 195 236 239 231 224 205 39 21 16 12 2 3 21 57 69 39 169 164 150 134 124 123 127 124 121 119 121 123 123 125 121 120 123 123 115 116 111 104 99 93 86 88 82 73 78 70
356 18 72 271 225 281 274 124 134 126 119 342 330 294 294 306 117 109 104 95 118 115 113 107 108 114 112 109 111 113 115 117 117 114 117 125 118 118 121 117 107 93 83 75 81 85 87 80 68
224 278 280 232 208 211 267 248 179 210 218 247 299 273 190 198 140 116 113 106 94 92 94 96 103 110 108 106 111 107 116 120 115 121 126 127 120 129 121 115 102 92 81 72 72 84 75 71 70